Glendive, MT

7:56 AM MST on December 15, 2017 (GMT -0700)
Dawson Community

Weather History for KGDV - May, 2013

Change the Weather History Date:

Saturday, May 11, 2013

  Actual Average Record
Temperature  
Mean Temperature 45 °F -  
Max Temperature 60 °F 61 °F 78 °F (2017)
Min Temperature 30 °F 37 °F 28 °F (2006)
Degree Days  
Heating Degree Days 20    
Moisture  
Dew Point 22 °F    
Average Humidity 40    
Maximum Humidity 64    
Minimum Humidity 22    
Precipitation  
Precipitation 0.00 in - - ()
Sea Level Pressure  
Sea Level Pressure 30.32 in    
Wind  
Wind Speed 7 mph (ENE)    
Max Wind Speed 12 mph    
Max Gust Speed -    
Visibility 10 miles    
Events      
Averages and records for this station are not official NWS values.
T = Trace of Precipitation, MM = Missing Value Source: NWS Daily Summary

Daily Weather History Graph

Daily Weather History Graph

Search for Another Location

Airport or City:

Trip Planner

Search our weather history database for the weather conditions in past years. The results will help you decide how hot, cold, wet, or windy it might be!

Date:

Astronomy

May. 11, 2013 Rise Set
Actual Time 5:28 AM MDT 8:23 PM MDT
Civil Twilight 4:52 AM MDT 8:59 PM MDT
Nautical Twilight 4:07 AM MDT 9:45 PM MDT
Astronomical Twilight 3:12 AM MDT 10:40 PM MDT
Moon 6:35 AM MDT (5/11) 10:08 PM MDT (5/11)
Length of Visible Light 16h 06m
Length of Day
14h 55m
Waxing Crescent, 3% of the Moon is Illuminated
May 11
Waxing Crescent
May 17
First Quarter
May 24
Full
May 31
Last Quarter
Jun 8
New

Hourly Weather History & Observations

Time (MDT) Temp. Windchill Dew Point Humidity Pressure Visibility Wind Dir Wind Speed Gust Speed Precip Events Conditions
12:15 AM 39.2 °F 32.5 °F 19.4 °F 45% 30.38 in 10.0 mi NW 10.4 mph - N/A   Clear
12:55 AM 39.2 °F 32.5 °F 21.2 °F 49% 30.41 in 10.0 mi North 10.4 mph - N/A   Clear
1:15 AM 35.6 °F 28.0 °F 19.4 °F 52% 30.41 in 10.0 mi North 10.4 mph - N/A   Clear
1:35 AM 35.6 °F 28.6 °F 19.4 °F 52% 30.41 in 10.0 mi North 9.2 mph - N/A   Clear
1:55 AM 33.8 °F 26.4 °F 19.4 °F 56% 30.42 in 10.0 mi North 9.2 mph - N/A   Clear
2:15 AM 35.6 °F 29.2 °F 21.2 °F 56% 30.42 in 10.0 mi NNE 8.1 mph - N/A   Clear
2:35 AM 33.8 °F - 19.4 °F 56% 30.42 in 10.0 mi Calm Calm - N/A   Clear
2:55 AM 33.8 °F 30.8 °F 21.2 °F 60% 30.43 in 10.0 mi North 3.5 mph - N/A   Clear
3:15 AM 35.6 °F - 21.2 °F 56% 30.43 in 10.0 mi Calm Calm - N/A   Clear
3:35 AM 33.8 °F 29.6 °F 19.4 °F 56% 30.43 in 10.0 mi North 4.6 mph - N/A   Clear
3:55 AM 32.0 °F 26.4 °F 19.4 °F 60% 30.43 in 10.0 mi North 5.8 mph - N/A   Clear
4:15 AM 30.2 °F 22.6 °F 19.4 °F 64% 30.43 in 10.0 mi North 8.1 mph - N/A   Clear
4:55 AM 30.2 °F 21.9 °F 19.4 °F 64% 30.43 in 10.0 mi North 9.2 mph - N/A   Clear
5:15 AM 30.2 °F 24.3 °F 19.4 °F 64% 30.43 in 10.0 mi North 5.8 mph - N/A   Clear
5:35 AM 30.2 °F 23.4 °F 19.4 °F 64% 30.43 in 10.0 mi North 6.9 mph - N/A   Clear
5:55 AM 30.2 °F 24.3 °F 17.6 °F 60% 30.44 in 10.0 mi NNE 5.8 mph - N/A   Clear
6:15 AM 32.0 °F 27.5 °F 19.4 °F 60% 30.45 in 10.0 mi NE 4.6 mph - N/A   Clear
6:35 AM 35.6 °F 31.7 °F 21.2 °F 56% 30.45 in 10.0 mi NE 4.6 mph - N/A   Clear
6:55 AM 37.4 °F 32.8 °F 23.0 °F 56% 30.45 in 10.0 mi NE 5.8 mph - N/A   Clear
7:35 AM 37.4 °F 32.1 °F 23.0 °F 56% 30.45 in 10.0 mi ENE 6.9 mph - N/A   Clear
7:55 AM 39.2 °F 35.0 °F 23.0 °F 52% 30.45 in 10.0 mi ENE 5.8 mph - N/A   Clear
8:15 AM 39.2 °F 35.0 °F 23.0 °F 52% 30.44 in 10.0 mi ENE 5.8 mph - N/A   Clear
8:35 AM 41.0 °F 37.1 °F 24.8 °F 53% 30.44 in 10.0 mi East 5.8 mph - N/A   Clear
9:35 AM 46.4 °F 45.2 °F 21.2 °F 37% 30.42 in 10.0 mi SE 3.5 mph - N/A   Clear
9:55 AM 46.4 °F 42.9 °F 23.0 °F 40% 30.41 in 10.0 mi SE 6.9 mph - N/A   Clear
10:35 AM 48.2 °F - 23.0 °F 37% 30.40 in 10.0 mi ENE 8.1 mph - N/A   Clear
10:55 AM 48.2 °F - 21.2 °F 34% 30.40 in 10.0 mi Calm Calm - N/A   Clear
11:15 AM 51.8 °F - 23.0 °F 33% 30.39 in 10.0 mi Calm Calm - N/A   Clear
11:35 AM 53.6 °F - 24.8 °F 33% 30.38 in 10.0 mi East 6.9 mph - N/A   Clear
11:55 AM 53.6 °F - 24.8 °F 33% 30.37 in 10.0 mi North 3.5 mph - N/A   Clear
12:15 PM 53.6 °F - 23.0 °F 30% 30.36 in 10.0 mi East 5.8 mph - N/A   Clear
12:35 PM 53.6 °F - 23.0 °F 30% 30.35 in 10.0 mi East 4.6 mph - N/A   Clear
12:55 PM 55.4 °F - 23.0 °F 29% 30.33 in 10.0 mi East 3.5 mph - N/A   Clear
1:15 PM 55.4 °F - 24.8 °F 31% 30.32 in 10.0 mi ESE 5.8 mph - N/A   Clear
1:35 PM 57.2 °F - 24.8 °F 29% 30.32 in 10.0 mi South 5.8 mph - N/A   Clear
2:15 PM 57.2 °F - 24.8 °F 29% 30.29 in 10.0 mi East 6.9 mph - N/A   Clear
2:35 PM 57.2 °F - 23.0 °F 27% 30.28 in 10.0 mi NE 9.2 mph - N/A   Clear
2:55 PM 59.0 °F - 24.8 °F 27% 30.27 in 10.0 mi ENE 9.2 mph - N/A   Clear
3:15 PM 57.2 °F - 23.0 °F 27% 30.27 in 10.0 mi Calm Calm - N/A   Clear
3:55 PM 60.8 °F - 24.8 °F 25% 30.25 in 10.0 mi Calm Calm - N/A   Clear
4:15 PM 60.8 °F - 24.8 °F 25% 30.24 in 10.0 mi NE 5.8 mph - N/A   Clear
4:35 PM 60.8 °F - 21.2 °F 22% 30.24 in 10.0 mi Calm Calm - N/A   Clear
4:55 PM 60.8 °F - 24.8 °F 25% 30.23 in 10.0 mi East 10.4 mph - N/A   Clear
5:15 PM 60.8 °F - 21.2 °F 22% 30.22 in 10.0 mi East 4.6 mph - N/A   Clear
5:35 PM 60.8 °F - 21.2 °F 22% 30.22 in 10.0 mi East 8.1 mph - N/A   Clear
5:55 PM 60.8 °F - 21.2 °F 22% 30.20 in 10.0 mi ENE 6.9 mph - N/A   Clear
6:15 PM 60.8 °F - 21.2 °F 22% 30.20 in 10.0 mi East 5.8 mph - N/A   Clear
6:35 PM 60.8 °F - 21.2 °F 22% 30.20 in 10.0 mi ENE 11.5 mph - N/A   Clear
6:55 PM 60.8 °F - 21.2 °F 22% 30.19 in 10.0 mi ENE 9.2 mph - N/A   Clear
7:15 PM 59.0 °F - 23.0 °F 25% 30.18 in 10.0 mi ENE 9.2 mph - N/A   Clear
7:35 PM 57.2 °F - 23.0 °F 27% 30.18 in 10.0 mi East 9.2 mph - N/A   Clear
7:55 PM 55.4 °F - 23.0 °F 29% 30.17 in 10.0 mi ENE 9.2 mph - N/A   Clear
8:15 PM 51.8 °F - 23.0 °F 33% 30.17 in 10.0 mi East 8.1 mph - N/A   Clear
8:35 PM 50.0 °F - 23.0 °F 35% 30.17 in 10.0 mi ENE 9.2 mph - N/A   Clear
8:55 PM 50.0 °F - 21.2 °F 32% 30.17 in 10.0 mi ENE 9.2 mph - N/A   Clear
9:15 PM 48.2 °F - 21.2 °F 34% 30.17 in 10.0 mi ENE 10.4 mph - N/A   Clear
9:55 PM 48.2 °F - 19.4 °F 32% 30.18 in 10.0 mi ENE 8.1 mph - N/A   Clear
10:15 PM 46.4 °F 41.5 °F 19.4 °F 34% 30.18 in 10.0 mi ENE 10.4 mph - N/A   Clear
10:35 PM 44.6 °F 40.2 °F 19.4 °F 37% 30.17 in 10.0 mi East 8.1 mph - N/A   Clear
10:55 PM 44.6 °F 39.7 °F 19.4 °F 37% 30.17 in 10.0 mi ENE 9.2 mph - N/A   Clear
11:15 PM 44.6 °F 39.7 °F 17.6 °F 34% 30.17 in 10.0 mi ENE 9.2 mph - N/A   Clear
11:35 PM 44.6 °F 40.2 °F 17.6 °F 34% 30.17 in 10.0 mi East 8.1 mph - N/A   Clear
11:55 PM 44.6 °F 40.7 °F 17.6 °F 34% 30.17 in 10.0 mi East 6.9 mph - N/A   Clear